Simultaneous Nadir Overpasses (SNOs) Predictions

Prediction of SNOs between AQUA and NOAA-19 Satellite Orbit:

Table of predicted SNOs for the next 14.0 days since TLE Epoch: 3/13/2020
Index Date (AQUA) Time (AQUA) Lat,Lon (AQUA) SZA (AQUA ) Date (NOAA-19) Time (NOAA-19) Lat,Lon (NOAA-19) SZA (NOAA-19 ) Distance(km) Time Diff (sec)
1 03/15/2020 17:06:02 -79.91, 73.67 96.85 03/15/2020 17:04:56 -79.93, 73.67 96.81 1.99 66
2 03/15/2020 17:55:30 79.95,-119.06 83.21 03/15/2020 17:55:51 79.93,-119.05 83.18 2.86 21
3 03/17/2020 23:29:14 -79.93, -22.33 97.72 03/17/2020 23:29:16 -79.93, -22.33 97.72 0.78 2
4 03/20/2020 05:02:58 79.90, 74.48 81.35 03/20/2020 05:02:31 79.92, 74.41 81.38 2.65 27
5 03/20/2020 05:52:25 -79.93,-118.06 98.64 03/20/2020 05:53:35 -79.95,-118.03 98.65 2.69 70
6 03/22/2020 10:36:43 -79.92, 170.88 99.52 03/22/2020 10:35:56 -79.91, 170.94 99.52 2.31 47
7 03/22/2020 11:26:09 79.93, -21.55 80.49 03/22/2020 11:26:50 79.93, -21.50 80.46 1.08 41
8 03/24/2020 16:10:27 79.93, -92.63 79.61 03/24/2020 16:09:15 79.79, -93.64 79.62 25.07 72
9 03/24/2020 16:59:53 -79.92, 75.10 100.43 03/24/2020 17:00:14 -79.93, 75.21 100.44 2.19 21




NCC Satellite Simultaneous Nadir Overpasses (SNOs) Prediction Service
